[[{"header":{"parameterUnit":"m.s-1","parameterCategory":1,"la1":30.2991,"la2":30.254,"lo1":-89.0895,"lo2":-89.0444,"dx":0.0017,"dy":0.0017,"nx":28,"ny":28,"refTime":"2022-12-30T15:00:00:Z","depth":0,"parameterNumber":2,"parameterNumberName":"U-component_of_WINDS"},"data":[0,0,0,0,0,0,0,0,0,0,0,0,0,0,0,0,0,0,0,0,0,0,0,0,0,0,0,0,0,0,0,0,0,0,0,0,0,0,0,0,0,0,0,0,0,0,0,0,0,0,0,0,0,0,0,0,0,0,2.1749,2.1747,0,2.1612,2.161,2.1609,2.1515,2.1515,2.1514,2.1513,2.1366,2.1363,2.136,0,0,0,0,0,0,0,0,0,0,0,0,0,2.1928,2.1925,2.1749,2.1747,2.1745,2.1612,2.161,2.1608,2.1515,2.1515,2.1514,2.1513,2.1368,2.1364,2.136,0,0,0,0,0,0,0,0,0,0,0,0,0,2.1826,2.1924,2.1749,2.1683,2.1676,2.1612,2.161,2.1608,2.1516,2.1515,2.1514,2.1513,2.1369,2.1364,2.1359,2.1348,0,0,2.1344,2.1342,0,0,0,0,0,0,0,0,2.1832,2.182,2.1695,2.1688,2.1679,2.158,2.1619,2.152,2.1516,2.1576,2.1513,2.1512,2.1438,2.1427,2.1403,2.1341,2.1335,2.1344,2.1341,2.1338,2.1337,0,0,0,0,0,0,0,2.1839,2.1825,2.1694,2.1693,2.1684,2.166,2.1644,2.16,2.1514,2.1571,2.1564,2.1549,2.1433,2.1408,2.1399,2.1333,2.1344,2.1339,2.1336,2.1334,2.1259,2.126,0,0,0,0,0,0,2.1857,2.1832,2.1699,2.169,2.1755,2.1657,2.164,2.1613,2.1514,2.1498,2.155,2.1545,2.1417,2.1405,2.1394,2.1376,2.1338,2.1334,2.1331,2.1258,2.1259,2.126,0,0,0,0,0,0,2.1862,2.1846,2.1704,2.1759,2.1739,2.1655,2.1625,2.161,2.1585,2.1499,2.1482,2.1541,2.1416,2.1401,2.1362,2.137,2.1332,2.1327,2.1257,2.1258,2.1259,2.134,0,0,0,0,0,0,2.1867,2.1849,2.1844,2.176,2.1737,2.1675,2.1626,2.1608,2.1578,2.157,2.1485,2.147,2.1414,2.1369,2.1357,2.1362,2.1323,2.1255,2.1257,2.1259,2.1336,2.1344,2.1351,0,0,0,0,0,2.1874,2.187,2.1844,2.1828,2.1729,2.1676,2.1662,2.16,2.1579,2.1573,2.1519,2.1473,2.1372,2.1366,2.1351,2.1355,2.1254,2.1257,2.1259,2.1333,2.1343,2.1351,0,0,0,0,0,0,2.1953,2.1857,2.1827,2.1796,2.1746,2.166,2.1651,2.1611,2.1563,2.1558,2.1481,2.1462,2.1432,2.1389,2.1385,2.1341,2.1308,2.1307,2.1369,2.1378,2.1385,2.1395,2.1319,0,0,0,0,0,2.1968,2.1934,2.1851,2.1831,2.1808,2.1735,2.1709,2.1666,2.1609,2.1586,2.1528,2.1473,2.1429,2.1401,2.1356,2.1331,2.1312,2.1327,2.1334,2.1341,2.134,2.1326,2.1332,2.1267,2.1267,2.1267,0,0,2.1995,2.1939,2.1921,2.1846,2.1801,2.1768,2.1717,2.1682,2.1656,2.158,2.154,2.1497,2.1431,2.14,2.1383,2.1363,2.1355,2.1343,2.1349,2.1345,2.1329,2.1335,2.1341,2.1268,2.1268,2.1268,0,0,2.2029,2.1983,2.1963,2.1921,2.1856,2.1808,2.1804,2.1726,2.1695,2.1655,2.1598,2.1566,2.1491,2.1448,2.1416,2.144,2.1397,2.1428,2.1464,2.1452,2.1457,2.1461,2.147,2.1474,2.1428,2.1428,2.1428,0,2.2071,2.2019,2.1957,2.1927,2.1897,2.1831,2.181,2.1772,2.1694,2.1674,2.1655,2.1563,2.1513,2.1473,2.148,2.1455,2.1448,2.1435,2.1462,2.1465,2.1468,2.1476,2.1479,2.1432,2.1432,2.1431,2.1431,0,2.2075,2.2041,2.2032,2.1963,2.1931,2.1906,2.184,2.1816,2.1778,2.1732,2.1694,2.1633,2.1576,2.1564,2.1523,2.1518,2.1508,2.1477,2.1441,2.1479,2.1486,2.1488,2.1438,2.1437,2.1435,2.1434,0,0,2.2149,2.2051,2.2049,2.2018,2.1945,2.1916,2.189,2.1837,2.1818,2.1768,2.1744,2.1685,2.1657,2.1621,2.1576,2.1566,2.1591,2.1535,2.1532,2.1547,2.1582,2.1605,2.161,2.1563,2.1563,2.1564,2.1587,0,2.2171,2.2121,2.2067,2.2036,2.2004,2.1944,2.1921,2.1874,2.1832,2.1798,2.1751,2.1711,2.1677,2.1655,2.1642,2.159,2.1596,2.1588,2.1538,2.1537,2.1555,2.1613,2.1636,2.1661,2.1589,2.159,2.159,0,2.2189,2.2147,2.2113,2.2046,2.2031,2.2011,2.1961,2.193,2.1875,2.1846,2.1809,2.1763,2.1732,2.1704,2.166,2.1656,2.1633,2.1606,2.1605,2.1596,2.1564,2.1605,2.1667,2.1671,2.1593,2.1593,2.1593,0,2.2247,2.2181,2.2153,2.2129,2.205,2.2039,2.2005,2.195,2.1923,2.1879,2.1861,2.1813,2.1786,2.175,2.1693,2.1677,2.1656,2.1622,2.163,2.1631,2.1625,2.1626,2.1685,2.1614,2.1614,2.1613,2.1613,0,2.2276,2.2258,2.2179,2.2162,2.2141,2.208,2.206,2.2021,2.1974,2.1948,2.1893,2.187,2.1796,2.1764,2.1719,2.1691,2.1679,2.1654,2.1642,2.1658,2.1661,2.164,2.1636,2.1614,2.1614,2.1614,2.1614,0,2.2335,2.2282,2.2248,2.2179,2.2161,2.2149,2.2089,2.207,2.2028,2.1996,2.1985,2.1917,2.1877,2.1818,2.1758,2.1729,2.1707,2.1688,2.1726,2.1719,2.173,2.173,2.1775,2.1778,2.1708,2.1708,2.1709,0,2.2356,2.2342,2.2273,2.2253,2.2222,2.2191,2.2165,2.2106,2.2081,2.2021,2.201,2.1967,2.1928,2.1868,2.1812,2.1768,2.1746,2.1766,2.1739,2.1757,2.1746,2.1747,2.1746,2.1771,2.1772,2.1773,2.1774,0,2.2399,2.2376,2.2341,2.2299,2.227,2.2233,2.2193,2.218,2.2113,2.2088,2.2048,2.2019,2.1962,2.192,2.1869,2.1833,2.1792,2.1784,2.1783,2.1798,2.1821,2.1809,2.1742,2.1782,2.1781,2.1781,2.178,2.178,2.2439,2.2425,2.2376,2.234,2.2305,2.2271,2.2251,2.2209,2.2176,2.2126,2.2094,2.2057,2.2006,2.1934,2.1901,2.1871,2.1853,2.1852,2.1852,2.1852,2.1858,2.1829,2.1861,2.1861,2.1861,2.1861,2.186,0,2.2479,2.2446,2.2415,2.2363,2.2336,2.2305,2.2261,2.224,2.2209,2.2166,2.2132,2.2088,2.2049,2.1993,2.1949,2.1936,2.1916,2.1926,2.1925,2.1918,2.1876,2.1881,2.1943,2.1943,2.1943,2.1943,2.1943,2.1943,2.2497,2.2471,2.2443,2.24,2.2367,2.2332,2.231,2.2278,2.2245,2.2199,2.2168,2.2133,2.2086,2.2039,2.2002,2.1987,2.1972,2.1988,2.1967,2.1928,2.192,2.1913,2.1917,2.1986,2.1986,2.2011,2.2011,2.2011]},{"header":{"parameterUnit":"m.s-1","parameterCategory":1,"la1":30.2991,"la2":30.254,"lo1":-89.0895,"lo2":-89.0444,"dx":0.0017,"dy":0.0017,"nx":28,"ny":28,"refTime":"2022-12-30T15:00:00:Z","depth":0,"parameterNumber":3,"parameterNumberName":"V-component_of_WINDS"},"data":[0,0,0,0,0,0,0,0,0,0,0,0,0,0,0,0,0,0,0,0,0,0,0,0,0,0,0,0,0,0,0,0,0,0,0,0,0,0,0,0,0,0,0,0,0,0,0,0,0,0,0,0,0,0,0,0,0,0,5.8497,5.8501,0,5.8831,5.8835,5.8839,5.8988,5.8988,5.8988,5.8987,5.933,5.9339,5.9348,0,0,0,0,0,0,0,0,0,0,0,0,0,5.799,5.7998,5.8497,5.8501,5.8505,5.8831,5.8835,5.884,5.8988,5.8988,5.8987,5.8987,5.9326,5.9338,5.9349,0,0,0,0,0,0,0,0,0,0,0,0,0,5.8255,5.8001,5.8496,5.8618,5.8633,5.883,5.8835,5.8841,5.8989,5.8988,5.8987,5.8987,5.9323,5.9337,5.9351,5.9451,0,0,5.9394,5.94,0,0,0,0,0,0,0,0,5.824,5.8274,5.8596,5.861,5.8627,5.8868,5.8782,5.9045,5.8989,5.8853,5.8987,5.8986,5.9176,5.9203,5.9267,5.9467,5.9481,5.9395,5.9404,5.941,5.9414,0,0,0,0,0,0,0,5.8221,5.826,5.8629,5.8601,5.862,5.8658,5.8695,5.8833,5.9014,5.8865,5.8877,5.8914,5.9185,5.9252,5.9276,5.9487,5.9395,5.9408,5.9416,5.9422,5.9791,5.9792,0,0,0,0,0,0,5.8183,5.8244,5.8619,5.8639,5.8428,5.8667,5.8709,5.8791,5.9013,5.9046,5.8915,5.892,5.9228,5.9259,5.9288,5.9424,5.941,5.9423,5.9432,5.9789,5.9791,5.9792,0,0,0,0,0,0,5.8171,5.8215,5.8605,5.8445,5.8498,5.8677,5.8768,5.8798,5.8866,5.9051,5.9084,5.8951,5.9229,5.9268,5.941,5.9438,5.943,5.9443,5.9788,5.979,5.9791,5.9693,0,0,0,0,0,0,5.8156,5.821,5.8249,5.8445,5.8505,5.872,5.8769,5.8805,5.889,5.8901,5.9093,5.9124,5.9232,5.9388,5.9424,5.9457,5.9454,5.9786,5.9789,5.9791,5.9694,5.9691,5.9688,0,0,0,0,0,5.8137,5.8207,5.825,5.8294,5.8558,5.8721,5.8756,5.8879,5.8891,5.8933,5.9052,5.9118,5.9428,5.9402,5.9444,5.9481,5.9785,5.9788,5.9791,5.9696,5.9691,5.9688,0,0,0,0,0,0,5.8008,5.8234,5.8285,5.8419,5.855,5.8746,5.8802,5.887,5.8999,5.9004,5.915,5.9192,5.9322,5.9416,5.9382,5.9592,5.9613,5.9624,5.9526,5.9524,5.952,5.9496,5.9466,0,0,0,0,0,5.7996,5.8109,5.8301,5.8401,5.8464,5.8621,5.8697,5.878,5.8922,5.8978,5.9107,5.9242,5.9371,5.9452,5.958,5.9708,5.9754,5.9755,5.9751,5.9748,5.9757,5.9835,5.9839,5.9801,5.9801,5.9801,0,0,5.797,5.8108,5.817,5.8379,5.849,5.8605,5.8667,5.8786,5.8874,5.8996,5.9139,5.9238,5.9399,5.9535,5.9602,5.9617,5.9777,5.9751,5.9747,5.9758,5.9839,5.9842,5.9845,5.9803,5.9803,5.9803,0,0,5.7984,5.8098,5.8196,5.8307,5.8475,5.858,5.8603,5.879,5.8862,5.9007,5.9103,5.9209,5.9426,5.9538,5.9623,5.9682,5.9749,5.972,5.9704,5.9779,5.9782,5.9785,5.9809,5.9816,5.9727,5.9727,5.9727,0,5.7932,5.8109,5.8238,5.8353,5.8443,5.856,5.8662,5.8763,5.8963,5.9023,5.9037,5.9315,5.9431,5.9597,5.9612,5.9676,5.9709,5.9699,5.9771,5.9775,5.9781,5.9806,5.9814,5.9723,5.9723,5.9723,5.9724,0,5.8038,5.816,5.8219,5.8412,5.8508,5.8615,5.8762,5.8844,5.8919,5.9023,5.9172,5.9315,5.9476,5.9521,5.9595,5.9699,5.9704,5.9742,5.9767,5.9777,5.9804,5.9814,5.9716,5.9718,5.9719,5.972,0,0,5.7979,5.8244,5.8263,5.8354,5.8549,5.8646,5.876,5.8918,5.8987,5.9122,5.9223,5.9405,5.9444,5.954,5.9627,5.9693,5.9735,5.9725,5.9731,5.9724,5.9863,5.9834,5.9843,5.978,5.9782,5.9784,5.985,0,5.8022,5.8231,5.8352,5.8512,5.8628,5.8742,5.8842,5.8973,5.9073,5.9187,5.9298,5.9426,5.9465,5.9525,5.9594,5.9715,5.9765,5.9711,5.9877,5.9881,5.9836,5.9856,5.9826,5.9882,5.9861,5.9863,5.9864,0,5.8099,5.8234,5.8405,5.8591,5.8644,5.8732,5.8888,5.8995,5.9147,5.9216,5.9325,5.9413,5.954,5.9552,5.9731,5.9691,5.9767,5.9836,5.9841,5.9863,5.9875,5.9881,5.9902,5.9911,5.9881,5.9879,5.9878,0,5.8043,5.8267,5.84,5.8473,5.8692,5.8751,5.8845,5.8997,5.9085,5.9222,5.9282,5.943,5.9513,5.9627,5.9754,5.9751,5.9921,5.9943,5.9983,5.998,6.0015,6.0012,6.0051,6.0059,6.0058,6.0058,6.0058,0,5.808,5.8181,5.8378,5.846,5.8578,5.8716,5.8829,5.8932,5.9067,5.9172,5.9279,5.9375,5.9536,5.9653,5.9753,5.9887,5.9923,5.9983,6.0009,5.9976,5.9968,6.0028,6.0029,6.0061,6.006,6.006,6.0059,0,5.8037,5.8173,5.8326,5.8521,5.8573,5.8651,5.8819,5.8904,5.901,5.9143,5.9182,5.9349,5.9493,5.963,5.9822,5.989,6.0025,6.0057,5.9973,5.9988,6.0022,6.0018,6.0103,6.0123,6.0113,6.0113,6.0113,0,5.8052,5.8133,5.8338,5.8417,5.8509,5.8633,5.8725,5.8864,5.8956,5.9137,5.92,5.9352,5.9481,5.9706,5.9845,5.9993,6.0032,6.0052,6.0055,6.002,6.0037,6.0031,6.0042,6.0049,6.0048,6.0048,6.0047,0,5.8066,5.813,5.8258,5.841,5.8517,5.8643,5.8773,5.8832,5.8997,5.9094,5.9243,5.9343,5.954,5.9691,5.9856,5.9954,6.003,6.0045,6.0063,6.0031,5.998,6.0011,5.9968,6.0043,6.0044,6.0044,6.0044,6.0044,5.8056,5.8134,5.8292,5.8432,5.8545,5.8665,5.8755,5.8874,5.9,5.9172,5.9247,5.9398,5.9552,5.9782,5.9879,6.0,6.0018,6.0043,6.005,6.0054,6.0049,5.9959,6.003,6.0031,6.0031,6.0031,6.0032,0,5.8077,5.8185,5.8312,5.8492,5.8603,5.8664,5.8812,5.8901,5.9033,5.917,5.9295,5.9468,5.9615,5.9767,5.9923,5.9991,6.003,6.0028,6.0026,6.0048,6.0022,5.9993,5.9994,5.9994,5.9994,5.9994,5.9994,5.9994,5.8102,5.824,5.8323,5.8519,5.8627,5.8776,5.8856,5.8968,5.9079,5.9267,5.939,5.9488,5.9632,5.98,5.9939,5.998,6.0034,6.0023,6.0073,6.0047,6.0049,6.0051,6.0024,6.0032,6.0032,6.009,6.009,6.0091]}]]